Weather History for Melbourne, FL

Change the Weather History Date:

Sunday, March 9, 2014

  Actual Average Record
Temperature  
Mean Temperature 64 °F 65 °F  
Max Temperature 75 °F 76 °F 88 °F (1961)
Min Temperature 52 °F 54 °F 34 °F (1971)
Degree Days  
Heating Degree Days 1 3  
Month to date heating degree days 13 27  
Since 1 July heating degree days 319 516  
Cooling Degree Days 0 3  
Month to date cooling degree days 20 26  
Year to date cooling degree days 188 124  
Growing Degree Days 13 (Base 50)    
Moisture  
Dew Point 54 °F    
Average Humidity 71    
Maximum Humidity 100    
Minimum Humidity 41    
Precipitation  
Precipitation 0.00 in 0.11 in 1.91 in (1978)
Month to date precipitation 0.19 0.92  
Year to date precipitation 7.25 5.72  
Sea Level Pressure  
Sea Level Pressure 30.14 in    
Wind  
Wind Speed 7 mph (NNE)    
Max Wind Speed 14 mph    
Max Gust Speed 17 mph    
Visibility 9 miles    
Events      
T = Trace of Precipitation, MM = Missing Value Source: NWS Daily Summary

Daily Weather History Graph

Daily Weather History Graph

Search for Another Location

Airport:

Trip Planner

Search our weather history database for the weather conditions in past years. The results will help you decide how hot, cold, wet, or windy it might be!

Date:

Astronomy

Mar. 09, 2014 Rise Set
Actual Time 7:38 AM EDT 7:27 PM EDT
Civil Twilight 7:15 AM EDT 7:51 PM EDT
Nautical Twilight 6:48 AM EDT 8:18 PM EDT
Astronomical Twilight 6:20 AM EDT 8:45 PM EDT
Moon 1:40 PM EDT (3/9) 3:42 AM EDT (3/9)
Length of Visible Light 12h 35m
Length of Day
11h 48m
First Quarter, 61% of the Moon is Illuminated
Mar 9
First Quarter
Mar 16
Full
Mar 23
Last Quarter
Mar 30
New
Apr 7
First Quarter

Hourly Weather History & Observations

Time (EDT) Temp. Dew Point Humidity Pressure Visibility Wind Dir Wind Speed Gust Speed Precip Events Conditions
12:53 AM 55.9 °F 55.0 °F 97% 30.15 in 10.0 mi NW 3.5 mph - N/A   Clear
1:53 AM 55.0 °F 54.0 °F 96% 30.15 in 7.0 mi WNW 4.6 mph - N/A   Clear
3:53 AM 54.0 °F 53.1 °F 97% 30.14 in 9.0 mi NW 3.5 mph - N/A   Clear
4:53 AM 54.0 °F 54.0 °F 100% 30.12 in 5.0 mi WNW 3.5 mph - N/A   Clear
5:53 AM 53.1 °F 53.1 °F 100% 30.13 in 8.0 mi WNW 4.6 mph - N/A   Clear
6:53 AM 53.1 °F 53.1 °F 100% 30.15 in 8.0 mi NW 4.6 mph - N/A   Clear
7:53 AM 54.0 °F 54.0 °F 100% 30.17 in 5.0 mi WNW 3.5 mph - N/A   Clear
8:53 AM 62.1 °F 57.9 °F 86% 30.18 in 10.0 mi NNW 4.6 mph - N/A   Clear
9:53 AM 68.0 °F 54.0 °F 61% 30.20 in 10.0 mi North 9.2 mph - N/A   Clear
10:53 AM 71.1 °F 48.0 °F 44% 30.21 in 10.0 mi North 11.5 mph - N/A   Clear
11:53 AM 73.0 °F 48.9 °F 42% 30.20 in 10.0 mi NNE 10.4 mph - N/A   Clear
12:53 PM 73.9 °F 51.1 °F 45% 30.17 in 10.0 mi NE 9.2 mph - N/A   Clear
1:53 PM 73.0 °F 50.0 °F 44% 30.15 in 10.0 mi NE 11.5 mph - N/A   Clear
2:53 PM 73.0 °F 50.0 °F 44% 30.13 in 10.0 mi NE 10.4 mph - N/A   Clear
3:53 PM 71.1 °F 52.0 °F 51% 30.11 in 10.0 mi East 11.5 mph - N/A   Clear
4:53 PM 71.1 °F 53.1 °F 53% 30.11 in 10.0 mi ENE 9.2 mph - N/A   Clear
5:53 PM 69.1 °F 54.0 °F 58% 30.10 in 10.0 mi East 9.2 mph - N/A   Clear
6:53 PM 68.0 °F 55.9 °F 65% 30.11 in 10.0 mi ENE 8.1 mph - N/A   Clear
7:53 PM 66.0 °F 55.9 °F 70% 30.11 in 10.0 mi East 6.9 mph - N/A   Clear
8:53 PM 66.0 °F 57.0 °F 73% 30.12 in 10.0 mi East 4.6 mph - N/A   Clear
9:53 PM 66.0 °F 57.9 °F 75% 30.13 in 10.0 mi East 4.6 mph - N/A   Clear
10:53 PM 66.0 °F 59.0 °F 78% 30.13 in 10.0 mi East 3.5 mph - N/A   Clear
11:53 PM 62.1 °F 57.9 °F 86% 30.12 in 10.0 mi Calm Calm - N/A   Clear
12:53 AM 57.9 °F 55.9 °F 93% 30.13 in 10.0 mi WNW 5.8 mph - N/A   Clear